Change the Weather History Date:

Monday, March 4, 2013

  Actual Average Record
Temperature  
Mean Temperature 38 °F -  
Max Temperature 45 °F 45 °F 55 °F (2005)
Min Temperature 30 °F 35 °F 30 °F (2001)
Degree Days  
Heating Degree Days 28    
Moisture  
Dew Point 30 °F    
Average Humidity 68    
Maximum Humidity 81    
Minimum Humidity 43    
Precipitation  
Precipitation 0.00 in - - ()
Sea Level Pressure  
Sea Level Pressure 30.19 in    
Wind  
Wind Speed 4 mph ()    
Max Wind Speed 13 mph    
Max Gust Speed -    
Visibility 19.8 miles    
Events      
Averages and records for this station are not official NWS values.
T = Trace of Precipitation, MM = Missing Value Source: Averaged Metar Reports

Daily Weather History Graph

Daily Weather History Graph

Search for Another Location

Airport or City:

Trip Planner

Search our weather history database for the weather conditions in past years. The results will help you decide how hot, cold, wet, or windy it might be!

Date:

Astronomy

Mar. 04, 2013 Rise Set
Actual Time 6:48 AM PST 6:01 PM PST
Civil Twilight 6:16 AM PST 6:33 PM PST
Nautical Twilight 5:39 AM PST 7:09 PM PST
Astronomical Twilight 5:02 AM PST 7:46 PM PST
Moon 1:26 AM PST (3/4) 10:24 AM PST (3/4)
Length of Visible Light 12h 16m
Length of Day
11h 13m
Waning Gibbous, 51% of the Moon is Illuminated
Mar 4
Waning Gibbous
Mar 4
Last Quarter
Mar 11
New
Mar 19
First Quarter
Mar 27
Full

Hourly Weather History & Observations

Time (PST) Temp. Windchill Dew Point Humidity Pressure Visibility Wind Dir Wind Speed Gust Speed Precip Events Conditions
12:00 AM 33.8 °F 27.7 °F 28.4 °F 81% 30.32 in 20.0 mi East 6.9 mph - N/A   Partly Cloudy
1:00 AM 35.6 °F 30.7 °F 30.2 °F 81% 30.32 in 20.0 mi NE 5.8 mph - N/A   Partly Cloudy
2:00 AM 33.8 °F 30.8 °F 28.4 °F 81% 30.32 in 20.0 mi ENE 3.5 mph - N/A   Partly Cloudy
3:00 AM 35.6 °F - 28.4 °F 75% 30.33 in 20.0 mi Calm Calm - N/A   Partly Cloudy
4:00 AM 33 °F - 26 °F 67% 30.32 in 19 mi Calm Calm - -   Clear
4:00 AM 32.0 °F - 26.6 °F 80% 30.32 in 20.0 mi Calm Calm - N/A   Partly Cloudy
5:00 AM 32.0 °F - 26.6 °F 80% 30.31 in 20.0 mi East 2.3 mph - N/A   Partly Cloudy
6:00 AM 33.8 °F - 28.4 °F 81% 30.31 in 20.0 mi Calm Calm - N/A   Partly Cloudy
7:00 AM 32.0 °F - 26.6 °F 80% 30.29 in 20.0 mi Calm Calm - N/A   Mostly Cloudy
8:00 AM 35.6 °F - 26.6 °F 70% 30.27 in 20.0 mi Calm Calm - N/A   Scattered Clouds
9:00 AM 41.0 °F 39.0 °F 30.2 °F 65% 30.28 in 20.0 mi NW 3.5 mph - N/A   Mostly Cloudy
10:00 AM 43 °F - 29 °F 46% 30.27 in 19 mi SW 3.5 mph - -   Scattered Clouds
10:00 AM 42.8 °F 40.1 °F 30.2 °F 61% 30.27 in 20.0 mi WSW 4.6 mph - N/A   Mostly Cloudy
11:00 AM 44.6 °F 40.2 °F 30.2 °F 57% 30.25 in 20.0 mi WNW 8.1 mph - N/A   Mostly Cloudy
12:00 PM 44.6 °F 39.2 °F 32.0 °F 61% 30.22 in 30.0 mi NW 10.4 mph - N/A   Mostly Cloudy
1:00 PM 44.6 °F 38.4 °F 35.6 °F 71% 30.20 in 30.0 mi WNW 12.7 mph - N/A   Mostly Cloudy
2:00 PM 44.6 °F 38.4 °F 33.8 °F 66% 30.17 in 30.0 mi WNW 12.7 mph - N/A   Mostly Cloudy
3:00 PM 44.6 °F 39.7 °F 33.8 °F 66% 30.13 in 30.0 mi NW 9.2 mph - N/A   Mostly Cloudy
4:00 PM 45 °F - 33 °F 52% 30.11 in 28 mi WNW 9.2 mph - -   Scattered Clouds
4:00 PM 44.6 °F 39.7 °F 33.8 °F 66% 30.11 in 30.0 mi WNW 9.2 mph - N/A   Mostly Cloudy
5:00 PM 44.6 °F 39.7 °F 35.6 °F 71% 30.08 in 30.0 mi WNW 9.2 mph - N/A   Mostly Cloudy
6:00 PM 41.0 °F 35.2 °F 33.8 °F 76% 30.06 in 30.0 mi NW 9.2 mph - N/A   Mostly Cloudy
7:00 PM 42.8 °F 39.3 °F 32.0 °F 66% 30.05 in 30.0 mi North 5.8 mph - N/A   Mostly Cloudy
8:00 PM 42.8 °F 41.1 °F 33.8 °F 70% 30.04 in 20.0 mi NE 3.5 mph - N/A   Mostly Cloudy
9:00 PM 39.2 °F 34.2 °F 26.6 °F 61% 30.03 in 20.0 mi ENE 6.9 mph - N/A   Scattered Clouds
10:00 PM 39 °F - 24 °F 43% 30.02 in 19 mi East 4.6 mph - -   Clear
10:00 PM 39.2 °F 35.9 °F 24.8 °F 56% 30.02 in 20.0 mi East 4.6 mph - N/A   Mostly Cloudy
11:00 PM 41.0 °F 39.0 °F 28.4 °F 61% 30.00 in 20.0 mi ESE 3.5 mph - N/A   Mostly Cloudy